Le nostre stazioni meteo in Italia

Pubblicità
Il mio iltempo24.it
Otranto, Italia (16334): Temperatura & dewpoint: 08.07.2020 15:00:00 - 14.07.2020 15:00:00 (CEST)Otranto, Italia (16334): velocità del vento: 08.07.2020 15:00:00 - 14.07.2020 15:00:00 (CEST)Otranto, Italia (16334): direzione del vento: 08.07.2020 15:00:00 - 14.07.2020 15:00:00 (CEST)Otranto, Italia (16334): precipitazioni: 08.07.2020 15:00:00 - 14.07.2020 15:00:00 (CEST)
Data & Tempo tt [°C] td [°C] ff [km/h] ff [kn] dd rr [mm]
14.07.2020 15:00:00 - - - - - -
14.07.2020 14:00:00 26,5 24,1 28 15 NNO 0,0
14.07.2020 13:00:00 26,7 23,7 24 13 N -
14.07.2020 12:00:00 26,2 24,0 22 12 N -
14.07.2020 11:00:00 25,9 23,9 26 14 N -
14.07.2020 10:00:00 25,8 23,6 24 13 N -
14.07.2020 09:00:00 25,0 22,6 22 12 N -
14.07.2020 08:00:00 23,6 22,5 21 11 N 0,0
14.07.2020 07:00:00 21,5 21,3 15 8 NO -
14.07.2020 06:00:00 20,2 20,1 13 7 ONO -
14.07.2020 05:00:00 20,7 20,6 15 8 NO -
14.07.2020 04:00:00 21,2 21,1 16 9 NO -
14.07.2020 03:00:00 20,7 20,6 16 9 NNO -
14.07.2020 02:00:00 21,2 21,0 18 10 N 0,0
14.07.2020 01:00:00 21,4 21,3 15 8 NNO -
14.07.2020 00:00:00 22,1 21,5 18 10 NO -
13.07.2020 23:00:00 22,3 20,9 18 10 N -
13.07.2020 22:00:00 22,4 21,0 21 11 NNO -
13.07.2020 21:00:00 22,8 21,0 18 10 NNO -
13.07.2020 20:00:00 24,0 21,5 24 13 NNO 0,0
13.07.2020 19:00:00 25,0 22,0 26 14 NNO -
13.07.2020 18:00:00 26,1 22,7 28 15 N -
13.07.2020 17:00:00 26,3 24,1 29 16 N -
13.07.2020 16:00:00 26,5 24,3 29 16 NNO -
13.07.2020 15:00:00 26,6 24,2 29 16 N -
13.07.2020 14:00:00 26,8 24,0 31 17 N 0,0
13.07.2020 13:00:00 26,8 24,4 31 17 N -
13.07.2020 12:00:00 26,9 24,1 34 18 N -
13.07.2020 11:00:00 26,2 24,0 31 17 NNE -
13.07.2020 10:00:00 26,0 24,4 28 15 N -
13.07.2020 09:00:00 25,6 25,0 28 15 N -
13.07.2020 08:00:00 25,2 24,8 24 13 N 0,0
13.07.2020 07:00:00 24,1 24,0 21 11 N -
13.07.2020 06:00:00 23,3 23,2 18 10 N -
13.07.2020 05:00:00 23,3 23,2 21 11 NNO -
13.07.2020 04:00:00 23,5 23,4 22 12 NNO -
13.07.2020 03:00:00 23,7 23,6 28 15 NNO -
13.07.2020 02:00:00 23,7 23,6 26 14 N 0,0
13.07.2020 01:00:00 23,9 23,8 24 13 N -
13.07.2020 00:00:00 24,3 24,2 24 13 NNO -
12.07.2020 23:00:00 24,4 24,0 21 11 N -
12.07.2020 22:00:00 24,7 24,5 26 14 N -
12.07.2020 21:00:00 25,3 24,9 24 13 NNO -
12.07.2020 20:00:00 27,0 24,8 21 11 N 0,0
12.07.2020 19:00:00 28,1 25,5 28 15 N -
12.07.2020 18:00:00 29,7 26,5 28 15 NNO -
12.07.2020 17:00:00 30,1 27,1 28 15 NNO -
12.07.2020 16:00:00 30,1 27,5 26 14 N -
12.07.2020 15:00:00 30,3 27,9 24 13 N -
12.07.2020 14:00:00 29,1 27,3 29 16 N 0,0
12.07.2020 13:00:00 28,4 28,1 31 17 N -
12.07.2020 12:00:00 27,9 26,3 24 13 NNE -
12.07.2020 11:00:00 27,7 27,7 21 11 N -
12.07.2020 10:00:00 27,2 27,2 18 10 N -
12.07.2020 09:00:00 27,1 27,1 16 9 N -
12.07.2020 08:00:00 26,1 26,1 13 7 NNO 0,0
12.07.2020 07:00:00 24,6 22,0 11 6 NNO -
12.07.2020 06:00:00 23,9 21,7 8 4 NNO -
12.07.2020 05:00:00 24,0 21,8 9 5 NNO -
12.07.2020 04:00:00 23,9 21,5 9 5 NO -
12.07.2020 03:00:00 23,9 22,1 9 5 NO -
12.07.2020 02:00:00 23,7 22,8 9 5 NNO 0,0
12.07.2020 01:00:00 23,7 21,9 9 5 NO -
12.07.2020 00:00:00 24,1 21,9 9 5 NO -
11.07.2020 23:00:00 25,0 22,6 8 4 ONO -
11.07.2020 22:00:00 25,2 23,2 4 2 O -
11.07.2020 21:00:00 26,3 24,3 4 2 S -
11.07.2020 20:00:00 28,1 24,3 8 4 S 0,0
11.07.2020 19:00:00 29,0 25,4 9 5 S -
11.07.2020 18:00:00 29,8 26,4 11 6 SSO -
11.07.2020 17:00:00 30,1 27,5 8 4 SSE -
11.07.2020 16:00:00 30,3 25,5 8 4 S -
11.07.2020 15:00:00 30,4 27,0 8 4 SSE -
11.07.2020 14:00:00 29,3 27,9 9 5 S 0,0
11.07.2020 13:00:00 26,9 25,7 9 5 E -
11.07.2020 12:00:00 27,0 25,4 9 5 ENE -
11.07.2020 11:00:00 27,0 25,4 9 5 E -
11.07.2020 10:00:00 27,0 26,7 8 4 NE -
11.07.2020 09:00:00 26,5 26,5 9 5 NNE -
11.07.2020 08:00:00 25,1 23,5 8 4 NNO 0,0
11.07.2020 07:00:00 22,5 22,3 8 4 NNO -
11.07.2020 06:00:00 21,3 21,2 9 5 NO -
11.07.2020 05:00:00 21,1 21,0 11 6 NNO -
11.07.2020 04:00:00 20,9 20,8 11 6 NO -
11.07.2020 03:00:00 21,3 21,2 8 4 NO -
11.07.2020 02:00:00 21,8 21,7 8 4 ONO 0,0
11.07.2020 01:00:00 22,0 21,9 5 3 ONO -
11.07.2020 00:00:00 22,3 22,2 5 3 NO -
10.07.2020 23:00:00 23,2 23,1 0 0 N -
10.07.2020 22:00:00 23,9 23,8 8 4 N -
10.07.2020 21:00:00 24,6 24,5 5 3 N -
10.07.2020 20:00:00 25,8 25,8 5 3 NNE 0,0
10.07.2020 19:00:00 26,7 26,5 8 4 NE -
10.07.2020 18:00:00 27,5 25,3 11 6 NNE -
10.07.2020 17:00:00 28,2 27,0 11 6 NNE -
10.07.2020 16:00:00 27,9 26,7 11 6 NE -
10.07.2020 15:00:00 27,4 25,8 11 6 N -
10.07.2020 14:00:00 27,0 26,7 13 7 NE 0,0
10.07.2020 13:00:00 27,3 27,0 15 8 NNE -
10.07.2020 12:00:00 26,6 26,4 15 8 N -
10.07.2020 11:00:00 26,2 25,7 13 7 N -
10.07.2020 10:00:00 25,6 25,5 16 9 NNE -
10.07.2020 09:00:00 24,8 24,7 16 9 N -
10.07.2020 08:00:00 23,1 23,0 15 8 NNO 0,0
10.07.2020 07:00:00 21,3 21,2 13 7 NNO -
10.07.2020 06:00:00 21,1 21,0 13 7 NO -
10.07.2020 05:00:00 21,5 21,4 13 7 NO -
10.07.2020 04:00:00 21,7 21,6 13 7 NNO -
10.07.2020 03:00:00 21,7 21,6 11 6 NO -
10.07.2020 02:00:00 21,9 21,8 8 4 NNO 0,0
10.07.2020 01:00:00 22,4 22,3 11 6 N -
10.07.2020 00:00:00 23,2 23,1 9 5 N -
09.07.2020 23:00:00 23,5 23,4 11 6 N -
09.07.2020 22:00:00 23,4 23,3 13 7 NNE -
09.07.2020 21:00:00 23,8 23,7 15 8 N -
09.07.2020 20:00:00 25,0 24,9 15 8 NNE 0,0
09.07.2020 19:00:00 25,5 25,1 18 10 N -
09.07.2020 18:00:00 26,0 25,8 21 11 N -
09.07.2020 17:00:00 26,7 26,0 18 10 N -
09.07.2020 16:00:00 27,2 25,5 22 12 N -
09.07.2020 15:00:00 26,7 26,0 22 12 N -
09.07.2020 14:00:00 26,5 26,0 26 14 N 0,0
09.07.2020 13:00:00 26,7 25,1 24 13 N -
09.07.2020 12:00:00 26,5 24,9 24 13 NNO -
09.07.2020 11:00:00 26,1 24,5 26 14 N -
09.07.2020 10:00:00 25,7 25,1 26 14 NO -
09.07.2020 09:00:00 25,2 24,6 22 12 N -
09.07.2020 08:00:00 23,1 23,0 18 10 NNO 0,0
09.07.2020 07:00:00 20,4 20,3 15 8 NO -
09.07.2020 06:00:00 19,1 19,0 13 7 NO -
09.07.2020 05:00:00 19,1 19,0 15 8 NO -
09.07.2020 04:00:00 19,1 19,0 15 8 NNO -
09.07.2020 03:00:00 19,2 19,1 13 7 NNO -
09.07.2020 02:00:00 20,1 20,0 13 7 NO 0,0
09.07.2020 01:00:00 20,0 19,8 11 6 NNO -
09.07.2020 00:00:00 20,3 19,8 13 7 NNO -
08.07.2020 23:00:00 21,5 20,1 13 7 NNO -
08.07.2020 22:00:00 21,9 20,1 11 6 N -
08.07.2020 21:00:00 22,7 20,7 15 8 N -
08.07.2020 20:00:00 24,4 22,0 22 12 N 0,0
08.07.2020 19:00:00 25,5 22,7 21 11 N -
08.07.2020 18:00:00 26,0 23,8 24 13 NNO -
08.07.2020 17:00:00 26,0 23,8 28 15 NNO -
08.07.2020 16:00:00 26,2 24,0 29 16 N -
08.07.2020 15:00:00 26,2 23,4 24 13 N -

tt = Temperatura
td = dewpoint
ff = velocità del vento
dd = direzione del vento
rr = precipitazioni

Stazioni seguenti

WeatherPro
AMSI
MeteoEarth